Wind_Speed
6 6 7 7 7 7 7 8 9 10 11 11 12 13 14 15 16 16 17 18 19 19 19 19 19 18 17 16 15 14 15 15 16 17 18 19 21 23 25 27 28 29 29
5 6 6 7 7 7 8 8 9 10 11 12 12 13 14 15 15 16 17 18 19 19 19 19 19 17 17 16 15 14 13 14 15 16 16 18 19 21 24 26 27 29 30
5 6 6 7 7 7 8 8 9 10 11 12 13 13 14 15 16 16 17 18 18 19 19 19 19 18 17 16 15 13 13 13 13 14 15 17 18 20 23 25 26 28 29
5 5 5 6 7 8 8 9 9 11 11 12 13 13 14 15 16 17 17 18 18 19 19 19 18 18 17 16 14 13 12 11 12 14 15 16 18 19 22 24 25 27 28
5 5 6 6 7 8 8 9 10 11 12 12 13 14 14 15 16 17 17 18 18 18 19 19 18 18 17 16 14 13 11 10 11 12 14 16 17 19 20 23 25 27 28
5 6 6 7 8 8 9 10 11 12 13 13 14 14 15 16 16 17 17 17 18 18 18 18 18 17 16 16 15 13 10 9 9 10 11 13 15 18 19 21 24 26 26
6 6 7 8 9 10 11 11 12 13 14 14 15 15 16 16 17 17 17 17 18 18 18 18 18 17 16 15 15 13 10 8 7 8 9 12 14 16 18 20 22 24 26
7 8 8 9 10 11 12 13 13 14 15 15 15 16 16 17 17 17 17 18 18 18 18 18 18 17 16 15 14 12 10 8 6 5 7 9 12 14 16 19 21 23 24
9 9 10 10 11 12 13 14 14 15 15 16 16 16 17 17 18 17 18 18 17 17 17 18 17 17 16 14 13 12 10 8 6 5 5 8 10 13 14 17 19 22 23
9 10 11 11 12 12 13 14 15 16 16 17 17 17 18 18 18 18 18 18 18 17 17 17 17 16 15 14 13 12 10 8 6 5 4 6 8 11 12 15 18 20 22
9 10 11 12 13 14 15 15 16 16 17 18 18 19 19 19 19 19 19 19 18 18 17 17 16 15 15 14 13 12 10 8 7 5 5 5 7 9 11 14 16 18 20
10 11 12 13 14 15 16 16 17 18 18 19 19 20 20 20 20 20 20 19 19 19 18 17 16 15 14 14 13 12 10 9 7 6 6 6 7 8 10 13 15 17 19
12 12 13 14 15 16 17 18 19 20 20 21 21 21 21 21 21 21 21 20 20 19 19 18 17 16 15 14 13 12 10 9 8 7 6 7 8 8 10 11 14 16 18
13 15 16 16 17 18 19 20 21 22 22 22 23 23 23 23 23 22 22 22 21 20 20 19 18 17 16 15 14 13 11 9 9 8 7 7 8 8 10 11 13 15 17
16 17 18 19 20 21 22 22 23 24 24 25 25 25 26 26 25 24 24 23 22 22 21 20 19 17 16 15 14 13 12 10 9 9 8 8 9 9 10 12 13 14 15
18 19 20 21 22 23 24 25 26 27 27 27 28 28 28 28 28 27 26 25 24 23 23 22 21 19 18 16 15 14 13 12 10 9 9 8 8 9 10 11 12 13 14
20 21 22 23 24 25 26 28 29 29 30 30 30 30 30 30 30 29 29 28 27 25 24 24 23 22 20 19 17 16 15 14 13 11 11 10 10 10 10 11 12 13 14
23 24 25 26 27 29 29 30 31 31 32 33 33 33 33 33 32 31 31 30 29 28 27 26 25 24 23 21 20 18 17 16 15 14 13 12 12 12 12 12 12 13 14
27 28 29 30 31 32 32 33 34 34 34 35 35 35 35 35 34 34 33 33 32 30 29 28 27 26 25 24 23 21 20 19 18 17 16 15 14 14 14 14 14 14 15
31 32 32 33 34 35 35 36 36 37 37 37 37 37 37 37 37 37 36 36 35 33 32 31 30 29 28 27 26 24 23 21 21 20 19 18 17 15 15 16 15 15 16
33 35 36 36 37 38 38 39 39 40 40 40 40 39 39 39 39 39 39 39 38 36 35 34 33 31 30 29 28 27 26 24 23 22 21 20 19 18 17 17 17 17 18
36 37 38 38 39 40 41 41 42 43 43 43 43 42 42 41 40 40 41 40 40 39 38 37 36 35 33 32 30 29 28 27 26 24 24 23 22 21 20 19 18 18 18
38 39 40 40 41 42 43 44 45 46 46 46 45 44 44 43 42 41 41 40 40 40 39 39 38 37 36 35 34 32 31 30 28 27 26 26 25 25 24 23 22 21 20
40 41 42 43 43 44 46 47 47 48 48 47 47 46 45 44 43 42 42 41 40 41 41 41 40 40 39 38 37 36 34 33 32 30 29 28 27 26 26 26 25 24 23
42 43 44 45 46 47 48 49 49 49 49 48 48 47 47 46 45 43 42 41 41 41 42 41 41 41 41 40 40 39 38 36 35 34 33 31 30 29 28 27 27 27 26
45 46 47 48 49 49 50 50 49 49 49 48 48 47 46 45 45 44 43 42 42 42 42 42 41 41 41 42 42 42 41 40 39 37 36 34 33 32 30 29 29 28 28
Wind_Direction
273 262 259 257 257 265 277 285 296 301 304 308 312 317 321 324 327 329 330 331 332 332 332 331 328 325 321 315 307 295 284 274 263 254 247 241 237 231 224 222 220 219 218
267 260 255 255 260 270 279 287 296 301 305 309 313 319 322 325 327 329 331 333 334 334 334 334 333 330 326 321 313 299 289 276 264 255 248 241 234 228 224 221 219 219 218
272 260 252 256 265 275 282 290 297 301 306 310 315 319 323 326 328 330 332 335 336 336 335 336 336 333 329 325 318 307 292 279 265 254 246 240 236 228 223 221 219 218 218
270 268 266 269 273 279 283 288 293 298 304 310 314 318 322 325 328 330 331 334 336 336 337 338 338 337 334 330 325 316 299 283 268 254 245 238 233 226 222 221 220 218 218
267 269 274 279 284 287 290 296 298 301 305 308 313 317 321 324 327 329 330 332 335 337 338 340 341 341 339 336 331 324 307 289 273 258 246 239 233 226 222 222 220 219 218
276 273 275 283 287 292 297 300 303 305 308 310 312 316 320 323 325 327 328 330 333 335 338 340 343 343 342 342 340 333 320 302 281 261 248 238 231 227 223 220 219 219 219
282 281 282 288 290 292 296 301 304 307 308 309 311 314 318 321 323 325 327 329 331 333 337 340 343 343 343 343 344 344 333 316 294 271 251 239 230 226 222 220 218 218 220
289 289 288 289 291 295 297 299 302 306 309 310 311 313 316 318 320 322 324 327 328 330 333 338 341 342 342 343 344 347 344 333 314 286 255 241 231 227 224 220 219 219 219
294 295 294 294 295 297 299 300 301 304 307 310 311 312 314 316 317 318 320 322 325 326 328 331 336 339 341 341 342 343 343 340 325 295 263 241 231 226 224 220 221 221 220
303 303 301 300 299 300 301 301 301 302 305 307 309 311 312 313 313 314 316 318 321 324 324 325 328 333 336 337 339 340 338 337 329 303 272 242 232 226 223 220 221 222 220
307 307 305 304 302 302 303 304 303 303 304 305 306 309 310 311 311 311 312 313 316 320 322 321 322 326 330 331 332 332 330 328 325 306 277 252 237 229 224 220 220 220 220
310 308 308 307 307 305 303 303 303 303 303 303 303 306 308 309 309 309 309 310 311 314 316 316 317 319 321 325 326 325 322 317 313 302 279 258 246 235 227 224 222 221 222
310 310 310 309 307 306 304 303 302 302 301 301 301 301 303 305 306 307 306 306 307 308 311 311 311 311 312 315 318 319 317 312 307 299 286 261 246 238 230 225 223 221 220
309 310 310 310 309 307 305 304 303 302 301 300 300 300 300 300 302 303 302 302 301 302 304 306 307 306 305 306 307 307 308 303 298 292 283 269 254 242 233 229 227 223 221
307 308 309 309 308 307 305 304 303 302 301 300 299 299 298 298 298 298 298 298 297 297 297 298 300 301 301 300 300 297 298 295 290 285 277 268 255 248 239 232 228 224 223
304 305 306 306 306 305 305 304 303 301 300 299 298 297 297 296 295 295 294 292 292 292 292 292 292 293 293 292 293 292 291 289 285 281 274 266 256 247 239 232 227 224 224
301 302 303 304 304 303 303 303 302 300 298 297 296 295 294 294 293 292 291 290 288 287 286 286 286 286 285 284 284 283 282 281 278 275 270 263 258 252 242 234 230 228 228
301 302 303 304 304 304 303 303 302 300 298 296 295 294 293 291 289 288 287 287 286 284 283 281 280 280 279 278 277 276 275 273 272 269 266 261 256 253 248 240 235 232 230
301 302 302 303 303 303 303 303 302 301 299 298 296 294 293 291 288 286 283 282 282 280 279 277 276 275 274 273 271 270 269 268 267 265 262 259 256 253 249 243 241 238 236
302 302 302 302 302 302 303 303 302 301 300 298 297 294 292 290 287 284 282 279 277 276 274 273 271 270 269 268 267 266 264 263 262 261 259 257 256 254 252 248 246 243 240
303 303 303 302 301 301 302 302 302 302 301 300 297 294 291 289 286 283 280 278 275 272 270 269 267 266 265 264 263 262 261 260 258 257 256 255 254 254 252 249 247 245 243
303 304 304 303 302 301 302 302 302 302 302 300 298 295 292 289 286 282 280 278 275 271 268 266 264 263 261 261 260 259 258 257 255 254 253 253 252 251 250 250 248 246 245
304 304 304 304 302 302 302 302 303 302 302 300 298 295 292 289 286 283 279 277 275 271 268 264 262 259 257 257 256 256 255 254 253 252 251 251 250 249 248 247 248 249 249
304 304 304 304 302 302 302 302 302 302 301 300 297 295 292 288 285 282 279 277 275 272 268 265 261 258 255 253 253 252 252 251 251 250 249 249 248 248 248 247 247 248 249
304 304 304 303 303 303 302 302 302 302 301 300 297 294 291 288 285 282 279 275 273 271 268 265 262 259 255 251 250 249 248 248 249 248 248 248 248 247 247 248 248 249 249
304 303 303 303 303 303 303 303 302 302 301 300 298 295 291 287 284 281 277 274 271 269 266 263 260 257 254 250 248 247 246 245 246 246 246 246 247 247 246 247 248 249 249
Height
5852 5852 5852 5853 5853 5853 5852 5851 5850 5849 5848 5846 5844 5842 5840 5837 5834 5830 5827 5823 5820 5816 5812 5809 5805 5802 5798 5795 5793 5791 5790 5789 5789 5790 5791 5792 5794 5796 5799 5803 5807 5811 5815
5851 5851 5851 5851 5852 5851 5851 5850 5849 5848 5846 5845 5843 5840 5838 5835 5832 5828 5825 5821 5817 5814 5810 5806 5802 5799 5795 5792 5790 5787 5786 5785 5785 5785 5786 5788 5791 5792 5795 5798 5802 5806 5810
5850 5850 5850 5850 5850 5850 5849 5848 5847 5846 5845 5843 5841 5838 5836 5833 5830 5827 5823 5819 5815 5812 5808 5804 5800 5796 5793 5790 5787 5784 5782 5782 5781 5782 5783 5784 5786 5788 5791 5794 5798 5802 5805
5849 5849 5849 5849 5849 5848 5848 5847 5846 5844 5843 5841 5839 5836 5834 5831 5828 5824 5821 5817 5813 5810 5806 5802 5798 5794 5791 5787 5784 5781 5779 5778 5778 5778 5779 5780 5782 5784 5787 5790 5793 5797 5801
5848 5848 5848 5848 5848 5847 5846 5845 5844 5843 5841 5839 5836 5834 5831 5829 5825 5822 5819 5815 5812 5808 5804 5800 5796 5793 5789 5785 5782 5779 5777 5775 5775 5775 5775 5777 5778 5780 5783 5786 5789 5793 5796
5847 5847 5847 5847 5846 5846 5845 5844 5842 5841 5839 5837 5834 5832 5829 5826 5823 5820 5817 5813 5810 5806 5802 5799 5795 5791 5787 5784 5780 5777 5775 5773 5772 5772 5772 5773 5775 5777 5779 5782 5785 5788 5792
5846 5846 5846 5845 5845 5844 5843 5842 5840 5839 5837 5835 5832 5830 5827 5824 5822 5818 5815 5812 5808 5805 5801 5797 5793 5790 5786 5783 5779 5776 5774 5772 5770 5770 5770 5771 5772 5773 5776 5778 5781 5784 5788
5845 5844 5844 5843 5842 5841 5840 5839 5838 5836 5834 5832 5830 5827 5825 5822 5819 5816 5813 5810 5806 5803 5799 5796 5792 5789 5785 5782 5779 5776 5773 5771 5769 5769 5768 5768 5769 5770 5772 5775 5777 5781 5784
5843 5843 5842 5841 5840 5839 5838 5836 5835 5833 5831 5829 5827 5825 5822 5820 5817 5814 5811 5808 5804 5801 5798 5794 5791 5788 5784 5781 5778 5775 5773 5771 5769 5768 5767 5767 5767 5768 5770 5772 5774 5777 5780
5841 5841 5840 5839 5838 5837 5835 5834 5832 5830 5828 5826 5824 5822 5819 5817 5814 5811 5808 5805 5802 5799 5796 5792 5789 5786 5783 5780 5777 5775 5772 5770 5768 5767 5766 5766 5766 5767 5768 5769 5771 5774 5777
5839 5838 5837 5836 5835 5834 5832 5831 5829 5827 5825 5823 5821 5818 5816 5814 5811 5808 5805 5802 5799 5796 5793 5790 5787 5785 5782 5779 5776 5774 5771 5770 5768 5767 5766 5765 5765 5765 5766 5767 5769 5771 5773
5837 5836 5834 5833 5832 5830 5829 5827 5825 5823 5821 5819 5817 5815 5812 5810 5807 5805 5802 5799 5797 5794 5791 5788 5785 5783 5780 5778 5775 5773 5770 5768 5767 5766 5765 5764 5764 5764 5764 5765 5766 5768 5770
5834 5833 5831 5830 5828 5827 5825 5823 5821 5819 5817 5815 5813 5810 5808 5806 5803 5801 5798 5795 5793 5791 5788 5785 5783 5780 5778 5776 5773 5771 5769 5767 5765 5764 5763 5762 5762 5762 5762 5763 5764 5765 5767
5831 5829 5828 5826 5824 5822 5821 5819 5816 5814 5812 5810 5807 5805 5803 5801 5798 5796 5793 5791 5789 5787 5784 5782 5780 5777 5775 5773 5771 5769 5767 5765 5764 5763 5761 5761 5760 5760 5760 5761 5762 5763 5764
5827 5825 5823 5822 5820 5817 5815 5813 5811 5808 5806 5804 5801 5799 5797 5795 5792 5790 5788 5786 5784 5782 5780 5778 5776 5774 5772 5770 5768 5766 5765 5763 5762 5760 5759 5759 5758 5758 5758 5759 5759 5760 5761
5822 5820 5818 5816 5814 5812 5809 5807 5804 5801 5799 5797 5794 5792 5790 5788 5786 5783 5781 5780 5778 5776 5774 5773 5771 5769 5768 5766 5765 5763 5762 5760 5759 5758 5757 5756 5756 5756 5756 5756 5756 5757 5759
5817 5815 5813 5810 5808 5805 5802 5799 5796 5793 5791 5788 5786 5784 5782 5780 5778 5776 5774 5772 5771 5769 5768 5767 5765 5764 5763 5762 5760 5759 5758 5757 5756 5755 5754 5753 5753 5753 5753 5753 5754 5754 5755
5810 5808 5806 5803 5800 5797 5794 5790 5787 5784 5781 5779 5776 5774 5772 5770 5768 5767 5765 5763 5762 5761 5760 5759 5758 5757 5757 5756 5755 5754 5753 5752 5751 5751 5750 5750 5750 5749 5750 5750 5750 5751 5752
5803 5800 5797 5794 5791 5788 5784 5781 5777 5774 5771 5768 5765 5763 5761 5759 5758 5756 5754 5753 5752 5751 5751 5750 5750 5749 5749 5749 5748 5747 5747 5746 5746 5746 5746 5745 5745 5745 5746 5746 5746 5747 5748
5794 5791 5788 5784 5781 5777 5774 5770 5767 5763 5760 5756 5753 5750 5748 5747 5745 5744 5742 5741 5740 5740 5740 5740 5740 5740 5740 5740 5740 5740 5740 5740 5740 5740 5740 5740 5740 5740 5741 5741 5742 5742 5743
5785 5781 5777 5774 5770 5767 5763 5759 5755 5751 5748 5744 5740 5737 5735 5733 5731 5730 5729 5728 5727 5727 5727 5728 5728 5729 5730 5730 5731 5731 5731 5732 5732 5733 5733 5734 5735 5735 5735 5736 5737 5737 5738
5775 5771 5767 5763 5759 5755 5751 5747 5743 5739 5735 5731 5727 5724 5720 5718 5716 5714 5713 5713 5712 5713 5713 5714 5715 5717 5718 5719 5720 5721 5722 5723 5724 5725 5726 5727 5728 5728 5729 5730 5731 5732 5732
5764 5760 5755 5751 5747 5742 5738 5734 5730 5725 5721 5716 5712 5709 5705 5703 5700 5699 5698 5697 5697 5697 5698 5699 5701 5703 5704 5706 5708 5710 5712 5713 5714 5716 5717 5719 5720 5721 5722 5723 5724 5725 5726
5753 5748 5744 5739 5734 5730 5725 5720 5715 5710 5705 5701 5696 5693 5690 5687 5685 5683 5682 5682 5682 5682 5682 5683 5685 5687 5690 5692 5695 5697 5699 5701 5703 5706 5708 5709 5711 5712 5714 5715 5717 5718 5720
5741 5736 5731 5726 5721 5716 5711 5706 5701 5696 5690 5686 5681 5677 5674 5672 5670 5668 5667 5666 5666 5666 5666 5668 5669 5671 5675 5678 5680 5683 5686 5689 5692 5694 5696 5699 5701 5703 5705 5707 5708 5710 5712
5728 5723 5718 5713 5708 5702 5697 5691 5686 5680 5675 5671 5666 5662 5658 5655 5653 5652 5651 5650 5650 5650 5650 5651 5653 5655 5658 5662 5665 5668 5672 5675 5679 5681 5684 5687 5690 5693 5696 5698 5699 5701 5703